Location: Newark
(60.6561°N, 46.5772°E)
Time: 23:32:27
(UTC+00:00)

Envisat - Visible Passes

Search period start: 23 September 2020 00:00
Search period end: 03 October 2020 00:00
Orbit: 764 x 766 km, 98.1° (Epoch: 23 September)

Date Brightness Start Highest point End Pass type
(mag) Time Alt. Az. Time Alt. Az. Time Alt. Az.
23 Sep 6.4 01:22:04 10° NE 01:24:36 14° E 01:27:08 10° ESE visible
23 Sep 6.8 16:08:47 10° W 16:10:05 11° WNW 16:11:24 10° WNW visible
24 Sep 6.1 15:29:02 10° SW 15:32:38 19° W 15:36:14 10° NW visible
25 Sep 6.0 01:46:46 10° NE 01:50:29 20° E 01:54:10 10° SE visible
26 Sep 6.6 01:11:20 10° ENE 01:13:02 11° ENE 01:14:43 10° E visible
26 Sep 6.5 15:56:11 10° WSW 15:58:30 13° WNW 16:00:50 10° NW visible
27 Sep 6.0 15:17:10 10° SW 15:21:06 22° W 15:25:04 10° NW visible
28 Sep 6.2 01:35:38 10° NE 01:38:56 17° E 01:42:14 10° ESE visible
29 Sep 6.3 15:43:59 10° WSW 15:46:57 15° W 15:49:55 10° NW visible
30 Sep 5.7 02:00:36 10° NE 02:04:45 24° E 02:08:53 10° SE visible
30 Sep 5.7 15:05:23 10° SW 15:09:36 26° W 15:13:51 10° NNW visible
01 Oct 6.3 01:24:37 10° NE 01:27:23 15° E 01:30:10 10° ESE visible
01 Oct 6.8 16:12:20 10° W 16:12:53 10° WNW 16:13:26 10° WNW visible
02 Oct 6.2 15:31:58 10° SW 15:35:24 18° W 15:38:51 10° NW visible
